Location: Igon
(43.1667°N, 0.2333°W)
Time: 21:31:27
(UTC+00:00)

ATLAS 5 CENTAUR R/B - Pass Details

Date: 29 November 2020
Orbit: 520 x 1138 km, 63.4° (Epoch: 02 January)

Event Time Altitude Azimuth Distance (km) Brightness Sun altitude
Rises 06:24:21 0° 204° (SSW) 2,637 4.8 -8.5°
Reaches altitude 10° 06:26:28 10° 200° (SSW) 1,773 3.9 -8.2°
Maximum altitude 06:30:18 57° 121° (ESE) 660 2.1 -7.5°
Drops below altitude 10° 06:34:35 10° 43° (NE) 1,974 4.4 -6.8°
Sets 06:37:03 0° 40° (NE) 2,971 5.3 -6.4°
